SCP
0 0 0 0 0 0 0 0 0 0 0 0 -0 0 -0 0 0 0 0 0 -0 -0 0 0 0 0 0 0 0 0 0 0 0 0 0 0 0 0 0 0 0 0 0
0 0 0 0 0 0 0 -0 0 0 0 0 -0 -0 -0 -0 -0 0 0 -0 0 -0 0 0 0 0 0 0 0 0 0 0 0 0 0 0 0 0 0 0 0 0 0
-0 0 0 0 0 0 -0 -0 -0 -0 0 0 0 -0 -0 0 0 0 0 0 0 -0 -0 0 0 0 0 0 0 0 0 0 0 0 0 0 0 0 0 0 0 0 0
-0 -0 -0 -0 0 -0 0 -0 -0 0 0 0 0 0 0 0 0 0 0 0 0 -0 -0 -0 0 0 0 0 0 0 0 0 0 0 0 0 0 0 0 0 0 0 0
0 -0 -0 -0 -0 -0 -0 0 0 -0 0 0 0 0 0 0 0 0 0 0 0 0 0 0 0 0 0 0 0 0 0 0 0 0 0 0 0 0 0 0 0 0 0
0 -0 -0 -0 0 0 0 -0 0 0 0 0 0 0 0 0 0 0 0 0 0 0 0 0 0 -0 -0 -0 0 -0 -0 0 -0 0 0 0 0 0 0 0 0 0 0
0 -0 -0 0 0 0 0 -0 0 0 0 0 -0 0 -0 -0 0 -0 0 -0 0 0 0 0 0 0 0 0 0 0 0 -0 -0 0 0 0 0 0 0 0 -0 -0 -0
-0 -0 -0 0 0 0 0 -0 -0 0 0 -0 -0 0 0 -0 -0 -0 -0 -0 -0 0 0 0 0 0 0 0 0 0 0 -0 -0 -0 0 0 0 0 0 0 -0 -0 0
-0 -0 -0 0 0 0 0 0 0 -0 -0 -0 0 -0 -0 -0 0 -0 -0 -0 -0 -0 -0 -0 -0 0 -0 0 -0 0 -0 0 0 0 0 0 0 0 0 0 0 0 0
-0 -0 -0 -0 0 0 0 0 0 0 -0 -0 -0 -0 -0 0 0 0 0 0 0 -0 -0 -0 -0 -0 -0 0 0 0 0 0 0 0 0 0 0 0 0 0 0 0 0
-0 -0 -0 -0 -0 0 0 0 -0 -0 -0 -0 -0 -0 0 0 0 0 0 0 -0 0 0 -0 0 0 0 0 0 0 0 0 0 0 0 0 0 0 0 0 0 0 0
0 -0 -0 -0 -0 0 0 0 -0 -0 -0 -0 -0 -0 -0 0 0 0 0 0 -0 0 0 0 0 0 0 0 0 0 0 0 0 0 0 0 0 0 0 0 0 0 0
0 -0 -0 -0 -0 -0 0 0 -0 -0 -0 -0 -0 -0 0 -0 0 0 0 0 0 0 0 0 0 0 0 0 0 0 0 0 0 0 0 0 0 0 0 0 0 0 0
0 0 -0 -0 -0 -0 -0 -0 -0 -0 -0 -0 -0 0 0 0 0 0 0 0 0 0 0 0 0 0 0 0 0 0 0 0 0 0 0 0 0 0 0 0 0 0 0
0 0 0 -0 -0 -0 -0 -0 0 -0 0 0 0 0 0 0 0 0 0 0 0 0 0 0 0 0 0 0 0 0 0 0 0 0 0 0 0 0 0 0 0 0 0
0 -0 0 -0 -0 -0 -0 -0 0 0 0 0 0 0 0 0 0 0 0 0 0 0 0 0 0 0 0 0 0 0 0 0 0 0 0 0 0 0 0 0 0 0 0
0 -0 0 0 0 0 -0 -0 0 0 0 0 0 0 0 0 0 0 0 0 0 0 0 0 0 0 0 0 0 0 0 0 0 0 0 0 0 0 0 0 0 0 0
0 0 -0 0 0 -0 -0 -0 -0 -0 0 0 0 0 -0 0 0 0 0 0 0 0 0 0 0 0 0 0 0 0 0 0 0 0 0 0 0 0 0 0 0 0 0
0 0 -0 0 -0 0 0 0 -0 0 0 0 0 0 0 0 0 0 0 0 0 0 0 0 0 0 0 0 0 0 0 0 0 0 0 0 0 0 0 0 0 0 0
-0 -0 -0 -0 0 0 0 0 0 0 0 0 0 0 0 0 0 0 0 0 0 0 0 0 0 0 0 0 0 0 0 0 0 0 0 0 0 0 0 0 0 0 0
-0 -0 0 0 0 0 0 0 0 0 0 0 0 0 0 0 0 0 0 0 0 0 0 0 0 0 0 0 0 0 0 0 0 0 0 0 0 0 0 0 0 0 0
0 0 0 0 0 0 0 0 0 0 0 0 0 0 0 0 0 0 0 0 0 0 0 0 0 0 0 0 0 0 0 -0 -0 0 0 0 0 0 0 0 0 0 0
-0 -0 0 -0 0 0 0 0 0 0 0 0 0 0 0 0 0 0 0 0 0 0 0 0 0 0 0 0 0 0 0 0 0 0 0 0 0 0 0 0 0 0 0
-0 -0 0 0 0 0 0 0 0 0 0 0 0 0 0 0 0 0 0 0 0 0 0 0 0 0 0 0 0 0 0 0 0 0 0 0 0 0 0 0 0 0 0
-0 -0 0 0 0 0 0 0 0 0 0 0 0 0 0 0 0 0 0 0 0 0 0 0 0 0 0 0 0 0 0 0 0 0 0 0 0 0 0 0 0 -0 -0
-0 0 0 0 0 0 0 0 0 0 0 0 0 0 0 0 0 0 0 0 0 0 0 0 0 0 0 0 0 0 0 0 0 0 0 0 0 0 0 0 0 0 0
Wind_Speed_500mb
1 3 3 3 7 11 14 15 18 16 17 21 25 22 16 13 4 10 15 12 7 7 10 11 11 9 10 11 10 10 10 10 11 10 10 11 12 10 9 10 8 8 8
1 5 5 6 6 6 9 14 15 16 15 21 19 21 21 20 16 10 18 13 12 9 14 16 13 12 11 11 11 11 12 12 12 15 15 14 13 12 14 12 12 11 12
0 4 8 8 6 5 5 9 11 15 18 21 21 19 20 20 20 14 17 15 15 13 14 18 15 15 13 14 16 15 13 12 14 17 16 16 18 20 20 17 17 17 16
2 7 7 6 5 5 5 5 7 10 15 22 22 22 23 24 23 22 25 24 20 19 17 19 22 19 19 20 19 19 17 14 14 17 19 22 21 21 20 22 24 25 24
2 5 6 8 6 2 7 6 3 3 11 16 20 17 31 32 30 31 27 29 34 29 22 24 27 25 26 25 23 21 20 18 15 19 20 21 21 22 25 25 25 24 25
5 6 8 7 5 3 4 6 8 12 16 22 26 24 24 32 35 35 37 26 28 30 28 27 27 27 36 32 28 23 23 27 36 31 25 27 27 28 26 25 26 27 29
4 10 6 5 5 3 7 11 10 11 16 15 9 2 35 22 21 27 31 31 32 30 29 29 27 23 17 31 33 32 30 33 36 41 30 29 30 31 30 30 32 33 30
2 7 5 6 9 2 5 3 4 6 14 6 10 11 11 12 19 19 21 23 22 28 29 27 26 24 21 22 25 28 34 35 33 32 37 33 33 36 34 31 33 34 32
4 5 3 8 10 6 6 5 3 2 9 14 17 7 5 0 7 12 18 19 23 26 26 28 27 29 27 25 26 26 25 26 23 24 29 29 27 27 30 30 28 29 30
3 3 7 7 9 8 9 9 7 8 1 1 5 7 7 7 1 2 8 11 15 18 20 22 24 27 26 25 22 21 20 20 21 22 22 20 21 22 21 23 21 20 26
6 4 6 6 4 7 11 12 10 8 11 9 5 6 6 8 5 2 4 3 10 14 16 17 18 18 20 21 21 21 20 18 20 22 22 22 22 23 22 21 21 20 20
8 4 5 5 5 7 9 10 10 9 12 13 13 12 14 11 10 8 8 5 5 8 14 14 13 14 15 16 18 20 20 17 15 17 18 19 19 16 13 11 10 9 10
8 5 2 4 6 7 8 12 12 12 12 16 17 20 20 19 16 15 14 11 10 10 15 18 19 16 14 13 12 12 11 11 10 9 12 13 13 11 11 10 10 11 12
10 10 8 7 11 11 9 10 13 14 14 16 20 23 26 26 22 19 19 18 18 17 20 22 20 19 21 18 14 10 10 9 9 9 10 11 12 12 11 11 11 11 13
15 13 9 10 10 13 11 9 9 12 15 17 19 23 24 25 28 30 29 29 25 27 23 19 21 17 20 25 22 14 11 9 8 9 10 11 12 12 13 12 12 13 14
18 20 16 16 16 15 11 11 13 18 21 21 22 23 23 23 25 29 32 33 36 32 34 21 24 26 23 22 27 27 22 18 12 10 12 12 14 15 15 15 15 15 14
17 17 17 17 16 16 15 18 20 22 25 26 28 29 27 26 28 31 31 35 37 37 34 31 38 36 33 32 31 32 32 30 24 15 16 17 18 19 19 18 17 16 15
25 25 17 18 16 16 22 24 24 30 32 32 31 32 34 30 31 36 34 30 34 35 33 33 36 36 38 42 41 37 35 37 37 28 22 23 24 24 23 21 18 17 17
28 28 25 19 20 21 24 25 23 27 30 34 33 33 31 36 30 33 36 33 27 25 28 31 28 31 31 42 45 45 47 44 44 40 33 31 29 29 28 28 24 21 21
29 25 24 23 25 24 24 25 23 19 23 22 25 27 26 25 27 27 26 27 27 22 23 33 36 33 41 43 43 47 46 46 49 46 44 40 33 31 32 34 33 28 24
26 24 23 22 16 19 19 10 8 13 17 14 15 18 16 16 19 24 23 26 30 28 23 28 29 30 34 38 41 42 45 43 42 47 50 48 45 39 36 38 40 35 29
18 18 16 13 13 5 4 8 12 16 19 20 20 21 21 19 19 24 28 34 34 44 48 40 32 35 37 37 40 40 39 34 33 38 51 57 51 45 41 41 41 36 33
18 19 15 12 7 3 3 6 17 22 30 36 36 31 24 21 22 23 27 31 37 39 43 47 51 44 36 37 32 40 44 30 27 29 30 51 57 49 42 42 39 40 40
22 19 14 14 8 5 2 8 23 32 36 36 36 36 29 25 24 27 31 33 33 35 34 39 45 45 44 38 31 30 40 49 48 44 38 42 45 43 40 38 35 39 45
26 24 18 12 9 8 7 14 26 33 29 29 26 21 17 22 26 28 28 26 25 24 28 30 34 33 36 37 32 30 31 44 54 52 47 42 41 46 50 44 39 36 43
31 25 18 12 12 13 12 16 25 25 24 26 24 21 21 23 24 26 29 32 32 29 28 29 28 31 33 38 41 40 37 39 44 48 53 51 48 42 44 45 42 44 42
Wind_Direction_500mb
11 110 181 187 177 187 194 195 199 204 208 194 195 199 198 192 214 234 208 217 220 233 209 209 219 216 211 212 212 225 227 223 219 217 218 224 215 207 211 208 212 218 218
129 158 140 118 156 143 176 204 205 206 207 197 201 208 209 218 233 243 213 229 233 260 228 215 230 225 221 230 225 221 230 238 236 236 237 231 232 239 234 231 241 245 240
228 184 178 180 172 128 160 192 203 217 221 217 212 212 224 224 228 217 216 224 245 249 234 227 229 237 243 240 237 237 229 243 242 242 246 249 242 239 244 238 241 245 249
266 224 207 176 179 155 162 184 205 221 234 228 229 246 237 233 226 237 236 240 240 255 242 229 230 230 236 241 242 247 248 253 256 251 250 249 249 246 250 249 246 249 252
340 245 223 195 164 126 180 182 186 272 258 252 245 270 253 238 239 241 234 238 244 249 236 232 232 231 234 232 239 246 249 255 253 256 256 258 254 252 252 254 253 254 256
250 228 223 200 179 195 244 248 278 296 282 276 271 259 239 229 238 244 235 243 234 236 232 237 243 247 244 242 236 241 250 246 236 247 254 258 257 255 253 255 257 258 257
257 212 212 204 220 261 294 258 289 301 311 292 276 347 205 221 234 241 222 229 242 227 237 245 251 254 253 235 243 242 247 253 253 248 262 257 257 259 260 259 259 257 260
186 207 207 222 227 300 337 230 273 344 354 91 145 152 179 232 226 224 221 232 232 231 237 245 254 254 249 243 245 245 250 254 256 243 252 257 264 262 257 261 265 261 260
195 203 211 221 230 270 267 277 254 299 24 98 107 126 141 233 201 235 240 244 237 242 246 244 254 253 246 248 250 249 248 250 248 243 249 259 264 264 255 261 260 254 256
209 196 228 240 245 251 262 255 254 236 229 18 79 50 33 20 4 40 265 245 243 248 250 256 259 254 250 247 247 244 248 246 249 257 261 261 260 262 261 265 260 253 255
227 239 226 234 265 271 250 244 250 266 235 243 255 308 340 342 316 299 350 300 263 259 260 261 266 246 243 240 241 244 242 250 259 262 261 264 268 269 270 270 266 265 268
243 267 243 236 271 303 280 246 255 261 230 237 253 268 277 288 296 270 275 301 249 257 264 263 254 242 241 241 240 244 246 254 267 263 243 258 262 256 251 246 241 243 252
224 223 280 259 246 282 281 256 254 257 249 244 251 257 265 273 281 272 254 265 288 286 295 283 264 257 252 250 248 247 248 250 267 258 243 243 235 226 210 207 216 232 251
202 244 256 283 259 251 268 273 250 260 268 261 255 257 262 263 260 262 260 246 271 276 278 274 278 266 254 251 255 258 269 269 276 267 244 232 217 208 212 224 241 264 277
224 234 249 278 279 248 256 286 274 271 275 267 266 264 264 261 256 259 260 263 260 271 273 284 274 276 260 251 250 248 251 260 276 271 254 237 226 224 233 244 254 258 266
244 246 254 261 256 256 266 271 262 263 268 270 268 270 274 272 268 270 269 271 265 261 269 269 270 271 268 256 246 245 245 252 247 262 254 247 242 242 244 246 250 256 264
242 258 268 250 260 272 276 275 273 280 280 281 280 284 284 284 281 275 272 274 274 269 257 264 267 267 266 256 249 246 245 246 249 240 245 247 244 243 245 247 249 257 267
252 257 267 266 270 269 278 278 279 283 285 287 283 291 290 287 284 277 279 285 268 262 262 265 270 272 271 265 255 248 244 242 242 243 241 242 246 246 242 238 245 253 265
252 259 260 260 255 273 286 292 298 297 293 283 274 290 284 280 285 272 274 278 276 263 259 250 257 271 273 269 270 255 242 238 238 239 240 241 243 247 247 242 247 259 272
244 251 248 257 271 280 292 300 305 299 304 309 294 294 286 275 276 278 271 261 271 257 262 269 268 266 280 283 266 259 253 241 239 239 240 245 247 249 251 248 251 257 267
238 234 238 253 264 286 301 322 352 8 359 338 312 312 312 294 295 286 270 263 247 246 267 275 267 266 275 287 273 264 251 258 248 243 241 244 245 251 257 255 254 256 260
216 212 225 250 281 296 14 36 4 2 348 330 317 309 314 312 285 288 273 256 260 263 266 273 270 269 274 289 285 261 254 258 261 249 242 243 244 252 260 264 262 258 254
216 208 224 243 209 189 17 25 355 336 323 311 300 293 288 296 310 303 287 278 274 269 265 266 270 269 270 292 287 253 248 248 267 271 260 248 248 252 263 269 267 255 250
214 214 206 206 232 251 292 344 348 339 329 317 305 290 286 294 304 303 307 292 282 278 281 276 274 272 268 283 279 265 244 255 263 259 258 251 252 254 256 261 266 252 243
194 192 195 211 231 248 272 320 347 352 348 6 6 349 319 312 312 309 311 312 304 302 297 285 282 272 263 267 254 250 241 241 251 252 245 250 249 259 264 258 257 260 248
180 193 207 224 243 250 275 325 343 356 359 4 2 355 340 327 320 312 309 308 304 307 301 297 291 291 274 258 250 246 253 260 256 265 247 246 250 249 266 269 264 252 252
Wind_Speed_850mb
1 3 3 3 7 11 14 15 18 16 17 21 25 22 16 13 4 10 15 12 7 7 10 11 11 9 10 11 10 10 10 10 11 10 10 11 12 10 9 10 8 8 8
1 5 5 6 6 6 9 14 15 16 15 21 19 21 21 20 16 10 18 13 12 9 14 16 13 12 11 11 11 11 12 12 12 15 15 14 13 12 14 12 12 11 12
0 4 8 8 6 5 5 9 11 15 18 21 21 19 20 20 20 14 17 15 15 13 14 18 15 15 13 14 16 15 13 12 14 17 16 16 18 20 20 17 17 17 16
2 7 7 6 5 5 5 5 7 10 15 22 22 22 23 24 23 22 25 24 20 19 17 19 22 19 19 20 19 19 17 14 14 17 19 22 21 21 20 22 24 25 24
2 5 6 8 6 2 7 6 3 3 11 16 20 17 31 32 30 31 27 29 34 29 22 24 27 25 26 25 23 21 20 18 15 19 20 21 21 22 25 25 25 24 25
5 6 8 7 5 3 4 6 8 12 16 22 26 24 24 32 35 35 37 26 28 30 28 27 27 27 36 32 28 23 23 27 36 31 25 27 27 28 26 25 26 27 29
4 10 6 5 5 3 7 11 10 11 16 15 9 2 35 22 21 27 31 31 32 30 29 29 27 23 17 31 33 32 30 33 36 41 30 29 30 31 30 30 32 33 30
2 7 5 6 9 2 5 3 4 6 14 6 10 11 11 12 19 19 21 23 22 28 29 27 26 24 21 22 25 28 34 35 33 32 37 33 33 36 34 31 33 34 32
4 5 3 8 10 6 6 5 3 2 9 14 17 7 5 0 7 12 18 19 23 26 26 28 27 29 27 25 26 26 25 26 23 24 29 29 27 27 30 30 28 29 30
3 3 7 7 9 8 9 9 7 8 1 1 5 7 7 7 1 2 8 11 15 18 20 22 24 27 26 25 22 21 20 20 21 22 22 20 21 22 21 23 21 20 26
6 4 6 6 4 7 11 12 10 8 11 9 5 6 6 8 5 2 4 3 10 14 16 17 18 18 20 21 21 21 20 18 20 22 22 22 22 23 22 21 21 20 20
8 4 5 5 5 7 9 10 10 9 12 13 13 12 14 11 10 8 8 5 5 8 14 14 13 14 15 16 18 20 20 17 15 17 18 19 19 16 13 11 10 9 10
8 5 2 4 6 7 8 12 12 12 12 16 17 20 20 19 16 15 14 11 10 10 15 18 19 16 14 13 12 12 11 11 10 9 12 13 13 11 11 10 10 11 12
10 10 8 7 11 11 9 10 13 14 14 16 20 23 26 26 22 19 19 18 18 17 20 22 20 19 21 18 14 10 10 9 9 9 10 11 12 12 11 11 11 11 13
15 13 9 10 10 13 11 9 9 12 15 17 19 23 24 25 28 30 29 29 25 27 23 19 21 17 20 25 22 14 11 9 8 9 10 11 12 12 13 12 12 13 14
18 20 16 16 16 15 11 11 13 18 21 21 22 23 23 23 25 29 32 33 36 32 34 21 24 26 23 22 27 27 22 18 12 10 12 12 14 15 15 15 15 15 14
17 17 17 17 16 16 15 18 20 22 25 26 28 29 27 26 28 31 31 35 37 37 34 31 38 36 33 32 31 32 32 30 24 15 16 17 18 19 19 18 17 16 15
25 25 17 18 16 16 22 24 24 30 32 32 31 32 34 30 31 36 34 30 34 35 33 33 36 36 38 42 41 37 35 37 37 28 22 23 24 24 23 21 18 17 17
28 28 25 19 20 21 24 25 23 27 30 34 33 33 31 36 30 33 36 33 27 25 28 31 28 31 31 42 45 45 47 44 44 40 33 31 29 29 28 28 24 21 21
29 25 24 23 25 24 24 25 23 19 23 22 25 27 26 25 27 27 26 27 27 22 23 33 36 33 41 43 43 47 46 46 49 46 44 40 33 31 32 34 33 28 24
26 24 23 22 16 19 19 10 8 13 17 14 15 18 16 16 19 24 23 26 30 28 23 28 29 30 34 38 41 42 45 43 42 47 50 48 45 39 36 38 40 35 29
18 18 16 13 13 5 4 8 12 16 19 20 20 21 21 19 19 24 28 34 34 44 48 40 32 35 37 37 40 40 39 34 33 38 51 57 51 45 41 41 41 36 33
18 19 15 12 7 3 3 6 17 22 30 36 36 31 24 21 22 23 27 31 37 39 43 47 51 44 36 37 32 40 44 30 27 29 30 51 57 49 42 42 39 40 40
22 19 14 14 8 5 2 8 23 32 36 36 36 36 29 25 24 27 31 33 33 35 34 39 45 45 44 38 31 30 40 49 48 44 38 42 45 43 40 38 35 39 45
26 24 18 12 9 8 7 14 26 33 29 29 26 21 17 22 26 28 28 26 25 24 28 30 34 33 36 37 32 30 31 44 54 52 47 42 41 46 50 44 39 36 43
31 25 18 12 12 13 12 16 25 25 24 26 24 21 21 23 24 26 29 32 32 29 28 29 28 31 33 38 41 40 37 39 44 48 53 51 48 42 44 45 42 44 42
Wind_Direction_850mb
11 110 181 187 177 187 194 195 199 204 208 194 195 199 198 192 214 234 208 217 220 233 209 209 219 216 211 212 212 225 227 223 219 217 218 224 215 207 211 208 212 218 218
129 158 140 118 156 143 176 204 205 206 207 197 201 208 209 218 233 243 213 229 233 260 228 215 230 225 221 230 225 221 230 238 236 236 237 231 232 239 234 231 241 245 240
228 184 178 180 172 128 160 192 203 217 221 217 212 212 224 224 228 217 216 224 245 249 234 227 229 237 243 240 237 237 229 243 242 242 246 249 242 239 244 238 241 245 249
266 224 207 176 179 155 162 184 205 221 234 228 229 246 237 233 226 237 236 240 240 255 242 229 230 230 236 241 242 247 248 253 256 251 250 249 249 246 250 249 246 249 252
340 245 223 195 164 126 180 182 186 272 258 252 245 270 253 238 239 241 234 238 244 249 236 232 232 231 234 232 239 246 249 255 253 256 256 258 254 252 252 254 253 254 256
250 228 223 200 179 195 244 248 278 296 282 276 271 259 239 229 238 244 235 243 234 236 232 237 243 247 244 242 236 241 250 246 236 247 254 258 257 255 253 255 257 258 257
257 212 212 204 220 261 294 258 289 301 311 292 276 347 205 221 234 241 222 229 242 227 237 245 251 254 253 235 243 242 247 253 253 248 262 257 257 259 260 259 259 257 260
186 207 207 222 227 300 337 230 273 344 354 91 145 152 179 232 226 224 221 232 232 231 237 245 254 254 249 243 245 245 250 254 256 243 252 257 264 262 257 261 265 261 260
195 203 211 221 230 270 267 277 254 299 24 98 107 126 141 233 201 235 240 244 237 242 246 244 254 253 246 248 250 249 248 250 248 243 249 259 264 264 255 261 260 254 256
209 196 228 240 245 251 262 255 254 236 229 18 79 50 33 20 4 40 265 245 243 248 250 256 259 254 250 247 247 244 248 246 249 257 261 261 260 262 261 265 260 253 255
227 239 226 234 265 271 250 244 250 266 235 243 255 308 340 342 316 299 350 300 263 259 260 261 266 246 243 240 241 244 242 250 259 262 261 264 268 269 270 270 266 265 268
243 267 243 236 271 303 280 246 255 261 230 237 253 268 277 288 296 270 275 301 249 257 264 263 254 242 241 241 240 244 246 254 267 263 243 258 262 256 251 246 241 243 252
224 223 280 259 246 282 281 256 254 257 249 244 251 257 265 273 281 272 254 265 288 286 295 283 264 257 252 250 248 247 248 250 267 258 243 243 235 226 210 207 216 232 251
202 244 256 283 259 251 268 273 250 260 268 261 255 257 262 263 260 262 260 246 271 276 278 274 278 266 254 251 255 258 269 269 276 267 244 232 217 208 212 224 241 264 277
224 234 249 278 279 248 256 286 274 271 275 267 266 264 264 261 256 259 260 263 260 271 273 284 274 276 260 251 250 248 251 260 276 271 254 237 226 224 233 244 254 258 266
244 246 254 261 256 256 266 271 262 263 268 270 268 270 274 272 268 270 269 271 265 261 269 269 270 271 268 256 246 245 245 252 247 262 254 247 242 242 244 246 250 256 264
242 258 268 250 260 272 276 275 273 280 280 281 280 284 284 284 281 275 272 274 274 269 257 264 267 267 266 256 249 246 245 246 249 240 245 247 244 243 245 247 249 257 267
252 257 267 266 270 269 278 278 279 283 285 287 283 291 290 287 284 277 279 285 268 262 262 265 270 272 271 265 255 248 244 242 242 243 241 242 246 246 242 238 245 253 265
252 259 260 260 255 273 286 292 298 297 293 283 274 290 284 280 285 272 274 278 276 263 259 250 257 271 273 269 270 255 242 238 238 239 240 241 243 247 247 242 247 259 272
244 251 248 257 271 280 292 300 305 299 304 309 294 294 286 275 276 278 271 261 271 257 262 269 268 266 280 283 266 259 253 241 239 239 240 245 247 249 251 248 251 257 267
238 234 238 253 264 286 301 322 352 8 359 338 312 312 312 294 295 286 270 263 247 246 267 275 267 266 275 287 273 264 251 258 248 243 241 244 245 251 257 255 254 256 260
216 212 225 250 281 296 14 36 4 2 348 330 317 309 314 312 285 288 273 256 260 263 266 273 270 269 274 289 285 261 254 258 261 249 242 243 244 252 260 264 262 258 254
216 208 224 243 209 189 17 25 355 336 323 311 300 293 288 296 310 303 287 278 274 269 265 266 270 269 270 292 287 253 248 248 267 271 260 248 248 252 263 269 267 255 250
214 214 206 206 232 251 292 344 348 339 329 317 305 290 286 294 304 303 307 292 282 278 281 276 274 272 268 283 279 265 244 255 263 259 258 251 252 254 256 261 266 252 243
194 192 195 211 231 248 272 320 347 352 348 6 6 349 319 312 312 309 311 312 304 302 297 285 282 272 263 267 254 250 241 241 251 252 245 250 249 259 264 258 257 260 248
180 193 207 224 243 250 275 325 343 356 359 4 2 355 340 327 320 312 309 308 304 307 301 297 291 291 274 258 250 246 253 260 256 265 247 246 250 249 266 269 264 252 252